[[{"header":{"parameterUnit":"m.s-1","parameterCategory":2,"la1":30.2991,"la2":30.254,"lo1":-89.0895,"lo2":-89.0444,"dy":0.0017,"dx":0.0017,"nx":28,"ny":28,"refTime":"2023-11-20T09:00:00:Z","depth":"0","parameterNumber":2,"parameterNumberName":"U-component_of_CURRENTS"},"data":[0,0,0,0,0,0,0,0,0,0,0,0,0,0,0,0,0,0,0,0,0,0,0,0,0,0,0,0,0,0,0,0,0,0,0,0,0,0,0,0,0,0,0,0,0,0,0,0,0,0,0,0,0,0,0,0,0,0,-0.1988,-0.1989,0,-0.2084,-0.2084,-0.2085,-0.2061,-0.2059,-0.2058,-0.2057,-0.2017,-0.2017,-0.2017,0,0,0,0,0,0,0,0,0,0,0,0,0,-0.1791,-0.1794,-0.1988,-0.1989,-0.1991,-0.2084,-0.2084,-0.2085,-0.2061,-0.2059,-0.2057,-0.2056,-0.2017,-0.2017,-0.2017,0,0,0,0,0,0,0,0,0,0,0,0,0,-0.1875,-0.1795,-0.1987,-0.1994,-0.1996,-0.2084,-0.2085,-0.2085,-0.2061,-0.2059,-0.2057,-0.2055,-0.2017,-0.2017,-0.2017,-0.206,0,0,-0.2018,-0.2019,0,0,0,0,0,0,0,0,-0.187,-0.1881,-0.1991,-0.1994,-0.1996,-0.2063,-0.2001,-0.2072,-0.2062,-0.203,-0.2057,-0.2054,-0.2025,-0.2025,-0.2041,-0.2059,-0.2057,-0.2018,-0.2019,-0.2019,-0.2019,0,0,0,0,0,0,0,-0.1864,-0.1877,-0.202,-0.1994,-0.1997,-0.1996,-0.2005,-0.2015,-0.2031,-0.2033,-0.2033,-0.2054,-0.2024,-0.2041,-0.204,-0.2056,-0.2018,-0.2019,-0.2019,-0.2019,-0.2106,-0.2108,0,0,0,0,0,0,-0.1867,-0.1872,-0.2017,-0.2023,-0.1933,-0.2001,-0.2011,-0.2039,-0.2034,-0.2034,-0.2055,-0.2052,-0.2041,-0.2039,-0.2038,-0.2085,-0.2019,-0.2019,-0.2019,-0.2104,-0.2106,-0.2108,0,0,0,0,0,0,-0.1862,-0.1879,-0.2013,-0.1953,-0.1971,-0.2007,-0.2039,-0.2042,-0.2054,-0.2053,-0.2049,-0.2063,-0.204,-0.2037,-0.2057,-0.2083,-0.2019,-0.202,-0.2101,-0.2104,-0.2107,-0.2181,0,0,0,0,0,0,-0.1856,-0.1877,-0.1894,-0.1954,-0.1975,-0.2067,-0.2042,-0.2046,-0.2073,-0.207,-0.2059,-0.2054,-0.2038,-0.2057,-0.2058,-0.2082,-0.202,-0.2098,-0.2103,-0.2106,-0.2176,-0.2186,-0.2195,0,0,0,0,0,-0.1849,-0.1882,-0.1894,-0.1912,-0.1999,-0.2069,-0.2079,-0.2093,-0.2076,-0.2092,-0.2089,-0.2054,-0.2082,-0.206,-0.206,-0.2085,-0.2096,-0.2101,-0.2106,-0.2172,-0.2184,-0.2195,0,0,0,0,0,0,-0.1806,-0.1886,-0.1899,-0.1955,-0.2009,-0.2066,-0.2087,-0.2099,-0.2114,-0.2102,-0.2085,-0.2081,-0.2111,-0.2094,-0.207,-0.2124,-0.2083,-0.2088,-0.2133,-0.2144,-0.2154,-0.2163,-0.202,0,0,0,0,0,-0.1809,-0.1849,-0.1926,-0.1968,-0.1997,-0.2042,-0.207,-0.2087,-0.2115,-0.2118,-0.2116,-0.2116,-0.2136,-0.2134,-0.2147,-0.2175,-0.2171,-0.2192,-0.2202,-0.221,-0.2219,-0.2227,-0.2237,-0.2124,-0.2124,-0.2124,0,0,-0.1808,-0.1854,-0.1878,-0.1961,-0.1999,-0.2065,-0.2052,-0.2103,-0.2149,-0.2112,-0.2155,-0.2154,-0.2155,-0.2192,-0.2202,-0.2174,-0.2249,-0.2216,-0.2223,-0.2228,-0.2233,-0.2243,-0.2253,-0.2127,-0.2127,-0.2126,0,0,-0.1828,-0.1865,-0.1909,-0.1964,-0.2035,-0.2073,-0.209,-0.2154,-0.2167,-0.2221,-0.2208,-0.2231,-0.2249,-0.2265,-0.2273,-0.2347,-0.2306,-0.2337,-0.2383,-0.2391,-0.24,-0.2407,-0.2448,-0.2459,-0.2333,-0.2333,-0.2333,0,-0.1825,-0.1896,-0.1931,-0.1995,-0.2049,-0.2081,-0.215,-0.2185,-0.2243,-0.2264,-0.2239,-0.2299,-0.2294,-0.2352,-0.2373,-0.2369,-0.2366,-0.2336,-0.2402,-0.2409,-0.2416,-0.2455,-0.2466,-0.2337,-0.2337,-0.2336,-0.2336,0,-0.1882,-0.195,-0.1982,-0.2075,-0.2131,-0.2196,-0.2262,-0.23,-0.2317,-0.2349,-0.2402,-0.2407,-0.2433,-0.2442,-0.2427,-0.2478,-0.2461,-0.2418,-0.2368,-0.2431,-0.247,-0.2479,-0.2343,-0.2342,-0.234,-0.2339,0,0,-0.1873,-0.1998,-0.2014,-0.2072,-0.2182,-0.2235,-0.2316,-0.2401,-0.2439,-0.2479,-0.2527,-0.2573,-0.2552,-0.2561,-0.2545,-0.2553,-0.2608,-0.2499,-0.2497,-0.2532,-0.2641,-0.2438,-0.243,-0.2555,-0.2557,-0.2558,-0.266,0,-0.1918,-0.203,-0.2092,-0.2214,-0.2286,-0.2351,-0.2424,-0.2494,-0.2528,-0.2574,-0.2592,-0.2624,-0.2603,-0.26,-0.2614,-0.2595,-0.2631,-0.2586,-0.258,-0.2582,-0.2386,-0.2432,-0.2262,-0.2319,-0.2669,-0.2671,-0.2672,0,-0.1963,-0.204,-0.2152,-0.2288,-0.2325,-0.2392,-0.2498,-0.2566,-0.2637,-0.2658,-0.2693,-0.2688,-0.2728,-0.2679,-0.2718,-0.2678,-0.2678,-0.2671,-0.2673,-0.2459,-0.2394,-0.2307,-0.2323,-0.2278,-0.2687,-0.2685,-0.2684,0,-0.1931,-0.2087,-0.2167,-0.222,-0.2371,-0.2422,-0.2491,-0.2579,-0.2622,-0.2691,-0.2702,-0.2758,-0.2755,-0.277,-0.2757,-0.2729,-0.2785,-0.2743,-0.2592,-0.2581,-0.2422,-0.239,-0.2379,-0.2796,-0.2796,-0.2795,-0.2795,0,-0.1963,-0.2034,-0.2152,-0.2206,-0.2301,-0.2403,-0.248,-0.2557,-0.2629,-0.2671,-0.2717,-0.2735,-0.2763,-0.2787,-0.279,-0.2709,-0.2819,-0.2611,-0.2581,-0.2444,-0.2415,-0.2351,-0.2391,-0.2799,-0.2798,-0.2797,-0.2797,0,-0.1925,-0.2003,-0.2104,-0.2248,-0.2288,-0.2346,-0.246,-0.2502,-0.258,-0.2628,-0.2644,-0.2714,-0.2723,-0.2764,-0.2794,-0.271,-0.2619,-0.2654,-0.25,-0.2444,-0.2149,-0.2199,-0.2197,-0.2143,-0.2466,-0.2461,-0.2458,0,-0.1921,-0.1962,-0.2098,-0.2137,-0.2201,-0.2289,-0.2341,-0.2459,-0.2493,-0.2603,-0.2609,-0.265,-0.2669,-0.2639,-0.2489,-0.2452,-0.2515,-0.2272,-0.2159,-0.2105,-0.2144,-0.2205,-0.2167,-0.2032,-0.2025,-0.202,-0.2015,0,-0.1907,-0.1933,-0.2006,-0.208,-0.2139,-0.2205,-0.2281,-0.231,-0.2434,-0.2475,-0.2528,-0.2562,-0.2481,-0.2301,-0.2198,-0.2157,-0.2154,-0.214,-0.2137,-0.1833,-0.1854,-0.1794,-0.204,-0.1963,-0.1969,-0.1972,-0.1975,-0.1977,-0.1866,-0.1891,-0.1954,-0.2021,-0.2072,-0.21,-0.2108,-0.2189,-0.2237,-0.2278,-0.2382,-0.2337,-0.2167,-0.1928,-0.1884,-0.1585,-0.1742,-0.1513,-0.1602,-0.1686,-0.1541,-0.1655,-0.148,-0.1482,-0.1484,-0.1486,-0.1487,0,-0.1818,-0.1837,-0.189,-0.1946,-0.1944,-0.2,-0.2047,-0.2033,-0.205,-0.2078,-0.2108,-0.1862,-0.1676,-0.1528,-0.1167,-0.1074,-0.111,-0.1108,-0.1204,-0.1206,-0.1336,-0.1211,-0.09,-0.0901,-0.0901,-0.0901,-0.0901,-0.0901,-0.1791,-0.1796,-0.1824,-0.1803,-0.1817,-0.1757,-0.175,-0.177,-0.1758,-0.1626,-0.1459,-0.1404,-0.1223,-0.1125,-0.0931,-0.0887,-0.0943,-0.0898,-0.1011,-0.1133,-0.118,-0.1225,-0.1112,-0.0786,-0.0786,-0.0794,-0.0794,-0.0794]},{"header":{"parameterUnit":"m.s-1","parameterCategory":2,"la1":30.2991,"la2":30.254,"lo1":-89.0895,"lo2":-89.0444,"dy":0.0017,"dx":0.0017,"nx":28,"ny":28,"refTime":"2023-11-20T09:00:00:Z","depth":"0","parameterNumber":3,"parameterNumberName":"V-component_of_CURRENTS"},"data":[0,0,0,0,0,0,0,0,0,0,0,0,0,0,0,0,0,0,0,0,0,0,0,0,0,0,0,0,0,0,0,0,0,0,0,0,0,0,0,0,0,0,0,0,0,0,0,0,0,0,0,0,0,0,0,0,0,0,-0.0911,-0.091,0,-0.0771,-0.0769,-0.0767,-0.0647,-0.0646,-0.0645,-0.0645,-0.0467,-0.0463,-0.0459,0,0,0,0,0,0,0,0,0,0,0,0,0,-0.0946,-0.0946,-0.0911,-0.091,-0.0909,-0.0772,-0.0769,-0.0766,-0.0647,-0.0646,-0.0645,-0.0644,-0.0468,-0.0464,-0.0459,0,0,0,0,0,0,0,0,0,0,0,0,0,-0.0875,-0.0946,-0.0911,-0.0838,-0.0831,-0.0772,-0.0769,-0.0766,-0.0647,-0.0646,-0.0645,-0.0644,-0.047,-0.0464,-0.0458,-0.044,0,0,-0.0439,-0.0436,0,0,0,0,0,0,0,0,-0.0879,-0.0872,-0.085,-0.0843,-0.0835,-0.0732,-0.0717,-0.0657,-0.0647,-0.0709,-0.0645,-0.0643,-0.0558,-0.0544,-0.051,-0.0432,-0.0424,-0.0439,-0.0435,-0.0432,-0.043,0,0,0,0,0,0,0,-0.0884,-0.0877,-0.0848,-0.0849,-0.084,-0.0769,-0.0758,-0.0704,-0.0634,-0.0703,-0.0696,-0.0693,-0.0552,-0.0516,-0.0505,-0.0421,-0.0439,-0.0433,-0.043,-0.0427,-0.0294,-0.0295,0,0,0,0,0,0,-0.0924,-0.0883,-0.0853,-0.0845,-0.0863,-0.077,-0.0758,-0.076,-0.0635,-0.0618,-0.0694,-0.0688,-0.0527,-0.0513,-0.0499,-0.0473,-0.0432,-0.0427,-0.0423,-0.0294,-0.0294,-0.0295,0,0,0,0,0,0,-0.0926,-0.0923,-0.0858,-0.0866,-0.0853,-0.0773,-0.0775,-0.0758,-0.0717,-0.063,-0.061,-0.0671,-0.0526,-0.0507,-0.0454,-0.0465,-0.0424,-0.0418,-0.0294,-0.0294,-0.0295,-0.042,0,0,0,0,0,0,-0.0927,-0.0925,-0.0933,-0.0869,-0.0855,-0.0835,-0.0776,-0.0756,-0.072,-0.0711,-0.0604,-0.0587,-0.0524,-0.0464,-0.0448,-0.0456,-0.0413,-0.0294,-0.0294,-0.0294,-0.0416,-0.0424,-0.0432,0,0,0,0,0,-0.0929,-0.0951,-0.0934,-0.0931,-0.0872,-0.0837,-0.0822,-0.0755,-0.0721,-0.0711,-0.0639,-0.059,-0.0454,-0.0459,-0.044,-0.0447,-0.0294,-0.0294,-0.0294,-0.0412,-0.0423,-0.0432,0,0,0,0,0,0,-0.0968,-0.094,-0.092,-0.0932,-0.0894,-0.082,-0.0811,-0.0763,-0.0696,-0.0685,-0.0593,-0.0571,-0.0527,-0.047,-0.0478,-0.0408,-0.0365,-0.0362,-0.046,-0.047,-0.0478,-0.0506,-0.0408,0,0,0,0,0,-0.0987,-0.0997,-0.0953,-0.0962,-0.0953,-0.0882,-0.0858,-0.0813,-0.0753,-0.072,-0.0652,-0.0576,-0.0514,-0.0481,-0.0418,-0.0385,-0.0357,-0.0374,-0.0383,-0.039,-0.0399,-0.0396,-0.0406,-0.0296,-0.0296,-0.0296,0,0,-0.1007,-0.0993,-0.0998,-0.0972,-0.0938,-0.0929,-0.0863,-0.0838,-0.0826,-0.0715,-0.0678,-0.0604,-0.0512,-0.0471,-0.0446,-0.0425,-0.0403,-0.0391,-0.0398,-0.0402,-0.0397,-0.0408,-0.0418,-0.0296,-0.0296,-0.0296,0,0,-0.1058,-0.1042,-0.1067,-0.1042,-0.1008,-0.0966,-0.0967,-0.0901,-0.0868,-0.0825,-0.0743,-0.0683,-0.0588,-0.0528,-0.0484,-0.05,-0.0449,-0.0475,-0.0538,-0.0536,-0.0546,-0.0554,-0.053,-0.0535,-0.0478,-0.0479,-0.0479,0,-0.1081,-0.1102,-0.1067,-0.1078,-0.1064,-0.0993,-0.1004,-0.0966,-0.0888,-0.0872,-0.0832,-0.0694,-0.0617,-0.0566,-0.0563,-0.0522,-0.0507,-0.0513,-0.0551,-0.0559,-0.0565,-0.0538,-0.0542,-0.0485,-0.0484,-0.0483,-0.0483,0,-0.114,-0.1151,-0.1165,-0.1158,-0.1141,-0.1136,-0.1091,-0.107,-0.1021,-0.0973,-0.0917,-0.0811,-0.0727,-0.0693,-0.0627,-0.0625,-0.0595,-0.0569,-0.0538,-0.0585,-0.0551,-0.0554,-0.0494,-0.0491,-0.049,-0.0488,0,0,-0.1193,-0.1206,-0.1207,-0.1216,-0.1177,-0.1171,-0.1171,-0.1144,-0.1144,-0.1066,-0.1059,-0.0938,-0.0874,-0.0819,-0.0731,-0.0719,-0.074,-0.067,-0.0667,-0.0666,-0.0729,-0.0516,-0.0497,-0.0734,-0.0735,-0.0736,-0.0687,0,-0.1241,-0.129,-0.1275,-0.1304,-0.1319,-0.1267,-0.1276,-0.1243,-0.1198,-0.1179,-0.1082,-0.103,-0.0925,-0.0884,-0.0856,-0.0776,-0.0752,-0.0755,-0.0665,-0.0661,-0.0484,-0.0495,-0.0393,-0.0324,-0.0689,-0.0689,-0.0689,0,-0.1289,-0.1316,-0.1365,-0.1381,-0.1385,-0.1391,-0.1384,-0.1377,-0.1338,-0.1307,-0.1241,-0.1161,-0.11,-0.1018,-0.0915,-0.0927,-0.0834,-0.0772,-0.0768,-0.0527,-0.0452,-0.0333,-0.0313,-0.016,-0.0692,-0.0692,-0.0692,0,-0.1337,-0.1369,-0.1415,-0.1414,-0.1427,-0.1443,-0.144,-0.1414,-0.1419,-0.1384,-0.1384,-0.1292,-0.1258,-0.1149,-0.0961,-0.0965,-0.0853,-0.0845,-0.0562,-0.0546,-0.0415,-0.0383,-0.0251,-0.0781,-0.0781,-0.0781,-0.0781,0,-0.1382,-0.1412,-0.1442,-0.1466,-0.1516,-0.1499,-0.1538,-0.1526,-0.1517,-0.1545,-0.1445,-0.1451,-0.1298,-0.119,-0.1023,-0.0769,-0.0892,-0.0566,-0.0517,-0.0448,-0.0422,-0.0242,-0.0212,-0.0779,-0.078,-0.078,-0.078,0,-0.1419,-0.1441,-0.149,-0.1528,-0.1545,-0.1573,-0.1604,-0.1632,-0.1616,-0.1654,-0.1652,-0.1596,-0.1444,-0.1216,-0.1042,-0.0836,-0.049,-0.0496,-0.0395,-0.0331,0.0099,0.0118,0.0302,0.0408,-0.021,-0.0204,-0.0199,0,-0.1434,-0.1475,-0.154,-0.1578,-0.1597,-0.1639,-0.1682,-0.1681,-0.1714,-0.1742,-0.1778,-0.1653,-0.156,-0.1167,-0.0757,-0.0377,-0.0285,-0.0059,-0.0022,0.0159,0.0212,0.0205,0.0277,0.0081,0.0088,0.0093,0.0097,0,-0.1463,-0.1494,-0.1538,-0.1632,-0.1688,-0.1754,-0.1811,-0.1862,-0.1882,-0.1917,-0.1971,-0.1907,-0.1462,-0.0987,-0.039,-0.0163,0.0087,0.007,0.0196,0.0423,0.0477,0.0592,0.0017,0.0146,0.0141,0.0138,0.0135,0.0133,-0.1466,-0.1508,-0.1587,-0.1671,-0.1749,-0.1865,-0.1932,-0.2009,-0.2088,-0.2123,-0.2079,-0.1833,-0.1119,-0.0267,-0.0031,0.0624,0.0491,0.0779,0.0774,0.0741,0.0901,0.0483,0.0723,0.0722,0.0721,0.0719,0.0718,0,-0.1468,-0.1538,-0.1624,-0.1738,-0.1845,-0.1876,-0.2015,-0.2092,-0.2214,-0.209,-0.2069,-0.1124,-0.0476,0.0206,0.1071,0.13,0.1283,0.1387,0.1336,0.1366,0.0948,0.1025,0.1418,0.1417,0.1417,0.1417,0.1417,0.1417,-0.1469,-0.1557,-0.1621,-0.1796,-0.1881,-0.2021,-0.2106,-0.2238,-0.2166,-0.1829,-0.1236,-0.0744,0.0346,0.1154,0.1738,0.1777,0.1869,0.1886,0.1918,0.1572,0.1512,0.1454,0.1536,0.2029,0.203,0.2338,0.2341,0.2344]}],[{"header":{"parameterUnit":"m.s-1","parameterCategory":2,"la1":30.2991,"la2":30.254,"lo1":-89.0895,"lo2":-89.0444,"dy":0.0017,"dx":0.0017,"nx":28,"ny":28,"refTime":"2023-11-20T09:00:00:Z","depth":"2","parameterNumber":2,"parameterNumberName":"U-component_of_CURRENTS"},"data":[0,0,0,0,0,0,0,0,0,0,0,0,0,0,0,0,0,0,0,0,0,0,0,0,0,0,0,0,0,0,0,0,0,0,0,0,0,0,0,0,0,0,0,0,0,0,0,0,0,0,0,0,0,0,0,0,0,0,-0.2028,-0.2029,0,-0.206,-0.206,-0.206,-0.2102,-0.2103,-0.2104,-0.2105,-0.2296,-0.2301,-0.2305,0,0,0,0,0,0,0,0,0,0,0,0,0,-0.1917,-0.1919,-0.2028,-0.2029,-0.2029,-0.206,-0.206,-0.206,-0.2102,-0.2103,-0.2104,-0.2105,-0.2295,-0.23,-0.2305,0,0,0,0,0,0,0,0,0,0,0,0,0,-0.1957,-0.192,-0.2028,-0.2055,-0.2058,-0.206,-0.206,-0.206,-0.2102,-0.2103,-0.2104,-0.2105,-0.2293,-0.23,-0.2306,-0.2321,0,0,-0.2326,-0.2329,0,0,0,0,0,0,0,0,-0.1955,-0.1961,-0.205,-0.2053,-0.2056,-0.208,-0.2091,-0.2156,-0.2101,-0.2083,-0.2105,-0.2106,-0.2239,-0.225,-0.2249,-0.233,-0.2338,-0.2326,-0.233,-0.2333,-0.2335,0,0,0,0,0,0,0,-0.1952,-0.1959,-0.2039,-0.2051,-0.2054,-0.2035,-0.2043,-0.2102,-0.2156,-0.2085,-0.2089,-0.2094,-0.2242,-0.2242,-0.2254,-0.2341,-0.2326,-0.2332,-0.2336,-0.2339,-0.2491,-0.2491,0,0,0,0,0,0,-0.1955,-0.1957,-0.2038,-0.204,-0.2009,-0.2037,-0.2045,-0.207,-0.2152,-0.2164,-0.2093,-0.2096,-0.223,-0.2246,-0.2261,-0.2353,-0.2333,-0.2339,-0.2343,-0.2491,-0.2491,-0.2491,0,0,0,0,0,0,-0.1953,-0.1963,-0.2037,-0.1999,-0.2008,-0.2038,-0.2064,-0.207,-0.2119,-0.2156,-0.2172,-0.2143,-0.2232,-0.2252,-0.2357,-0.2359,-0.2342,-0.2348,-0.249,-0.2491,-0.2491,-0.2494,0,0,0,0,0,0,-0.195,-0.1962,-0.1979,-0.2,-0.201,-0.2083,-0.2064,-0.2069,-0.2118,-0.2124,-0.2204,-0.2219,-0.2234,-0.2347,-0.2364,-0.2367,-0.2353,-0.249,-0.2491,-0.2491,-0.2494,-0.2494,-0.2495,0,0,0,0,0,-0.1946,-0.1966,-0.198,-0.199,-0.2034,-0.2085,-0.209,-0.2112,-0.212,-0.2158,-0.2207,-0.2219,-0.2358,-0.2355,-0.2373,-0.2379,-0.249,-0.249,-0.2491,-0.2494,-0.2494,-0.2495,0,0,0,0,0,0,-0.1962,-0.1973,-0.1989,-0.2024,-0.2072,-0.2094,-0.2103,-0.214,-0.2203,-0.2206,-0.2254,-0.2274,-0.2356,-0.2374,-0.2368,-0.2418,-0.2414,-0.2418,-0.2409,-0.241,-0.2411,-0.2343,-0.2358,0,0,0,0,0,-0.1964,-0.1966,-0.201,-0.2046,-0.2055,-0.2091,-0.2112,-0.2142,-0.2193,-0.2221,-0.2291,-0.2332,-0.2359,-0.2397,-0.2438,-0.2493,-0.2475,-0.2496,-0.2496,-0.2497,-0.2451,-0.2435,-0.2429,-0.2492,-0.2492,-0.2492,0,0,-0.1991,-0.1988,-0.2002,-0.2045,-0.206,-0.2077,-0.2108,-0.2152,-0.2182,-0.2235,-0.2315,-0.2362,-0.2379,-0.2424,-0.2459,-0.245,-0.2479,-0.2497,-0.2497,-0.2451,-0.2434,-0.2428,-0.2422,-0.2492,-0.2492,-0.2492,0,0,-0.202,-0.203,-0.2036,-0.2062,-0.2093,-0.2093,-0.2124,-0.2187,-0.2227,-0.2319,-0.2331,-0.2376,-0.2478,-0.2453,-0.2453,-0.2483,-0.2491,-0.2514,-0.2459,-0.2446,-0.244,-0.2434,-0.2441,-0.2435,-0.2504,-0.2504,-0.2504,0,-0.2032,-0.205,-0.2059,-0.2069,-0.2063,-0.2105,-0.2117,-0.216,-0.227,-0.2285,-0.2352,-0.2418,-0.246,-0.2431,-0.2433,-0.2479,-0.2489,-0.2461,-0.2444,-0.2438,-0.2432,-0.244,-0.2434,-0.2504,-0.2504,-0.2504,-0.2504,0,-0.2054,-0.2078,-0.2079,-0.2071,-0.2087,-0.21,-0.2138,-0.2194,-0.2245,-0.2278,-0.2335,-0.2393,-0.2412,-0.2437,-0.2449,-0.2412,-0.2442,-0.2458,-0.2439,-0.2425,-0.2436,-0.2429,-0.2505,-0.2504,-0.2504,-0.2504,0,0,-0.2059,-0.2071,-0.2089,-0.2061,-0.2071,-0.2074,-0.2109,-0.2121,-0.2128,-0.2241,-0.2255,-0.2292,-0.2325,-0.2321,-0.2352,-0.2335,-0.2328,-0.2379,-0.2378,-0.2377,-0.2323,-0.2196,-0.2178,-0.2359,-0.2357,-0.2355,-0.2361,0,-0.206,-0.2041,-0.2065,-0.2052,-0.2018,-0.2042,-0.2069,-0.2097,-0.2137,-0.2182,-0.2207,-0.2246,-0.228,-0.2307,-0.229,-0.2324,-0.2305,-0.2325,-0.2339,-0.2339,-0.2221,-0.2162,-0.2001,-0.1977,-0.2355,-0.2353,-0.2353,0,-0.2073,-0.2034,-0.2013,-0.1979,-0.1973,-0.198,-0.1948,-0.1991,-0.2036,-0.2089,-0.2104,-0.216,-0.2148,-0.2206,-0.2199,-0.2224,-0.2253,-0.2277,-0.2279,-0.2135,-0.2196,-0.2044,-0.1951,-0.2342,-0.2343,-0.2343,-0.2344,0,-0.1999,-0.2001,-0.1948,-0.194,-0.1928,-0.1925,-0.1917,-0.1952,-0.1979,-0.2019,-0.2057,-0.2061,-0.2107,-0.211,-0.2163,-0.2196,-0.2167,-0.2224,-0.2127,-0.2122,-0.1962,-0.1943,-0.2189,-0.2189,-0.2189,-0.2189,-0.2189,0,-0.1934,-0.1916,-0.1912,-0.1875,-0.1822,-0.1855,-0.1832,-0.1852,-0.191,-0.1923,-0.1997,-0.202,-0.2092,-0.2107,-0.2131,-0.2084,-0.2138,-0.207,-0.2085,-0.1963,-0.1945,-0.2237,-0.2243,-0.2189,-0.2189,-0.2189,-0.2189,0,-0.1879,-0.188,-0.1812,-0.1786,-0.1784,-0.1743,-0.1765,-0.1766,-0.1843,-0.1871,-0.1894,-0.1993,-0.1996,-0.2033,-0.2057,-0.2042,-0.2013,-0.1989,-0.1844,-0.1835,-0.1998,-0.2004,-0.1873,-0.1868,-0.1864,-0.186,-0.1857,0,-0.1855,-0.1821,-0.1743,-0.1699,-0.1685,-0.1657,-0.166,-0.1715,-0.1723,-0.1842,-0.1844,-0.1899,-0.1887,-0.1855,-0.1813,-0.1768,-0.1893,-0.1626,-0.1614,-0.1922,-0.1952,-0.1965,-0.1977,-0.1449,-0.1443,-0.1438,-0.1434,0,-0.1801,-0.1781,-0.1693,-0.1587,-0.1547,-0.1522,-0.1521,-0.1527,-0.1626,-0.1682,-0.174,-0.1749,-0.1707,-0.1573,-0.1505,-0.1473,-0.1606,-0.1518,-0.1859,-0.1533,-0.1516,-0.1548,-0.1575,-0.1389,-0.1394,-0.1397,-0.1399,-0.1401,-0.1773,-0.1668,-0.1552,-0.1441,-0.1409,-0.1381,-0.1336,-0.1382,-0.1407,-0.1464,-0.1562,-0.1514,-0.1471,-0.1244,-0.1185,-0.1155,-0.1282,-0.1263,-0.1282,-0.1305,-0.1233,-0.1206,-0.1011,-0.1013,-0.1015,-0.1017,-0.1018,0,-0.166,-0.155,-0.1434,-0.1279,-0.1222,-0.1248,-0.1241,-0.1192,-0.1195,-0.1261,-0.1296,-0.1112,-0.0986,-0.0955,-0.0823,-0.0805,-0.0841,-0.079,-0.085,-0.0891,-0.0929,-0.0843,-0.0515,-0.0514,-0.0513,-0.0512,0,0,-0.1569,-0.1387,-0.1275,-0.1117,-0.1075,-0.0983,-0.0961,-0.0925,-0.0911,-0.0889,-0.0873,-0.092,-0.0887,-0.0689,-0.0651,-0.0569,-0.0732,-0.0533,-0.0928,-0.1036,-0.1074,-0.1179,-0.1088,0,0,0,0,0]},{"header":{"parameterUnit":"m.s-1","parameterCategory":2,"la1":30.2991,"la2":30.254,"lo1":-89.0895,"lo2":-89.0444,"dy":0.0017,"dx":0.0017,"nx":28,"ny":28,"refTime":"2023-11-20T09:00:00:Z","depth":"2","parameterNumber":3,"parameterNumberName":"V-component_of_CURRENTS"},"data":[0,0,0,0,0,0,0,0,0,0,0,0,0,0,0,0,0,0,0,0,0,0,0,0,0,0,0,0,0,0,0,0,0,0,0,0,0,0,0,0,0,0,0,0,0,0,0,0,0,0,0,0,0,0,0,0,0,0,0.0072,0.0073,0,0.0119,0.012,0.012,0.0227,0.0229,0.0231,0.0233,0.0644,0.0652,0.0661,0,0,0,0,0,0,0,0,0,0,0,0,0,0.0082,0.0082,0.0072,0.0073,0.0073,0.0119,0.012,0.012,0.0227,0.0229,0.0232,0.0234,0.0641,0.0651,0.0662,0,0,0,0,0,0,0,0,0,0,0,0,0,0.0099,0.0081,0.0072,0.0131,0.0137,0.0119,0.012,0.0121,0.0226,0.0229,0.0233,0.0236,0.0637,0.065,0.0664,0.0683,0,0,0.0705,0.071,0,0,0,0,0,0,0,0,0.0098,0.0099,0.0122,0.0127,0.0133,0.017,0.0273,0.0326,0.0225,0.0193,0.0233,0.0237,0.0516,0.0539,0.0537,0.0702,0.0719,0.0706,0.0714,0.072,0.0724,0,0,0,0,0,0,0,0.0097,0.0097,0.0092,0.0122,0.0129,0.0158,0.0164,0.0282,0.0344,0.0196,0.0204,0.0207,0.0522,0.0524,0.0549,0.0726,0.0705,0.0717,0.0726,0.0731,0.1078,0.1079,0,0,0,0,0,0,0.0085,0.0096,0.009,0.0093,0.0122,0.0155,0.0162,0.0156,0.0335,0.0362,0.0204,0.0211,0.0499,0.0533,0.0564,0.0702,0.072,0.0732,0.074,0.1077,0.1078,0.1079,0,0,0,0,0,0,0.0085,0.0083,0.0088,0.0096,0.0098,0.0151,0.0144,0.0155,0.0199,0.0336,0.0372,0.0242,0.0503,0.0546,0.0711,0.0716,0.0738,0.075,0.1075,0.1077,0.1079,0.0913,0,0,0,0,0,0,0.0084,0.0083,0.0075,0.0094,0.0097,0.0101,0.0141,0.0153,0.0193,0.0205,0.0381,0.0418,0.0509,0.0691,0.0725,0.0735,0.0761,0.1074,0.1076,0.1078,0.0917,0.0909,0.0902,0,0,0,0,0,0.0084,0.0065,0.0074,0.0074,0.0085,0.0101,0.0106,0.0155,0.0192,0.0208,0.0338,0.0415,0.0729,0.0702,0.0742,0.0756,0.1073,0.1076,0.1078,0.092,0.091,0.0902,0,0,0,0,0,0,0.0086,0.0074,0.0085,0.0069,0.0093,0.012,0.0122,0.0165,0.0267,0.0296,0.0439,0.0486,0.0633,0.0724,0.0692,0.0865,0.091,0.0921,0.0777,0.0769,0.0762,0.0677,0.0772,0,0,0,0,0,0.0071,0.0046,0.0062,0.0054,0.0053,0.0092,0.0105,0.0144,0.0227,0.0272,0.0407,0.0546,0.0661,0.0741,0.0867,0.0964,0.1,0.1,0.0992,0.0984,0.0945,0.0999,0.0991,0.1088,0.1088,0.1088,0,0,0.0074,0.006,0.0053,0.0051,0.0061,0.0054,0.011,0.0131,0.0155,0.0308,0.0417,0.0543,0.0687,0.0792,0.0864,0.0877,0.0979,0.0988,0.098,0.0944,0.1001,0.099,0.0981,0.109,0.109,0.1089,0,0,0.0051,0.0046,0.0012,0.0022,0.0033,0.0043,0.0057,0.0114,0.0168,0.0281,0.0385,0.0493,0.0712,0.0765,0.0829,0.0857,0.0946,0.0934,0.0817,0.087,0.086,0.0853,0.0875,0.0871,0.0917,0.0917,0.0916,0,0.0051,0.0012,0.0015,-0.0009,-0.0013,0.0038,0.002,0.0065,0.019,0.0231,0.0317,0.0553,0.0673,0.0738,0.0738,0.083,0.088,0.0829,0.0852,0.0845,0.084,0.0866,0.0862,0.0909,0.091,0.0911,0.0911,0,-0.0006,-0.0017,-0.0035,-0.0067,-0.0066,-0.0068,-0.0028,0.0024,0.0108,0.0165,0.0297,0.0442,0.0568,0.0624,0.0691,0.071,0.0764,0.0838,0.0851,0.0818,0.085,0.0849,0.0898,0.0901,0.0903,0.0905,0,0,-0.0043,-0.0077,-0.0075,-0.0097,-0.0096,-0.0105,-0.008,-0.0056,-0.0032,0.0109,0.0158,0.0303,0.0377,0.0448,0.0547,0.0574,0.0568,0.0674,0.0681,0.0652,0.0675,0.0667,0.0666,0.066,0.066,0.0659,0.0706,0,-0.0086,-0.0153,-0.0153,-0.0191,-0.0223,-0.0184,-0.0169,-0.0127,-0.0049,0.0026,0.0134,0.0239,0.0313,0.0379,0.0409,0.0562,0.0563,0.0546,0.0749,0.0754,0.0715,0.0664,0.0645,0.0683,0.0706,0.0706,0.0706,0,-0.0147,-0.0182,-0.0244,-0.0264,-0.0276,-0.0287,-0.0284,-0.0255,-0.0169,-0.0091,-0.0013,0.0107,0.0166,0.0253,0.0394,0.0396,0.0491,0.0586,0.0592,0.0632,0.0744,0.073,0.0682,0.0706,0.0706,0.0706,0.0706,0,-0.0211,-0.0244,-0.0307,-0.0313,-0.0328,-0.0337,-0.0341,-0.0288,-0.0261,-0.0175,-0.0125,-0.0017,0.0071,0.0192,0.0375,0.0401,0.054,0.0614,0.0672,0.0673,0.0714,0.0719,0.0661,0.0661,0.0661,0.0661,0.0661,0,-0.0278,-0.0314,-0.0336,-0.0368,-0.0412,-0.04,-0.0424,-0.0392,-0.0338,-0.0314,-0.0198,-0.0132,0.0067,0.0192,0.0335,0.0493,0.0509,0.0612,0.0674,0.0659,0.0658,0.0737,0.0745,0.0663,0.0662,0.0662,0.0662,0,-0.0338,-0.0358,-0.0414,-0.0439,-0.0447,-0.0478,-0.0488,-0.0489,-0.0433,-0.0397,-0.037,-0.021,-0.0045,0.0131,0.0349,0.0447,0.06,0.0644,0.0589,0.0641,0.0701,0.07,0.0699,0.0699,0.0699,0.0699,0.0699,0,-0.038,-0.0416,-0.0467,-0.0498,-0.0512,-0.0546,-0.0562,-0.0534,-0.053,-0.0432,-0.041,-0.0253,-0.0099,0.0184,0.0371,0.0571,0.0599,0.0641,0.0658,0.0637,0.07,0.07,0.07,0.0656,0.0655,0.0655,0.0655,0,-0.0432,-0.0448,-0.0489,-0.0554,-0.0591,-0.0636,-0.0655,-0.0662,-0.0614,-0.0558,-0.0434,-0.0299,-0.0035,0.021,0.0432,0.0544,0.0607,0.0637,0.0654,0.064,0.0599,0.0659,0.066,0.0652,0.0652,0.0652,0.0652,0.0653,-0.0448,-0.048,-0.0532,-0.0596,-0.0647,-0.0702,-0.0732,-0.0716,-0.0688,-0.0559,-0.0434,-0.02,-0.0007,0.0346,0.049,0.0598,0.061,0.0654,0.0655,0.0657,0.0633,0.0594,0.064,0.064,0.064,0.064,0.0641,0,-0.0455,-0.0507,-0.0569,-0.0648,-0.0717,-0.0738,-0.0774,-0.076,-0.0707,-0.0525,-0.035,-0.011,0.0164,0.035,0.0532,0.0642,0.0643,0.0643,0.064,0.0642,0.0644,0.0621,0.0624,0.0624,0.0625,0.0625,0,0,-0.0461,-0.0524,-0.0562,-0.0684,-0.0744,-0.0815,-0.0834,-0.0779,-0.0661,-0.046,-0.0272,0.0007,0.021,0.0332,0.0462,0.0558,0.0568,0.0552,0.0553,0.0536,0.0537,0.0637,0.06,0,0,0,0,0]}],[{"header":{"parameterUnit":"m.s-1","parameterCategory":2,"la1":30.2991,"la2":30.254,"lo1":-89.0895,"lo2":-89.0444,"dy":0.0017,"dx":0.0017,"nx":28,"ny":28,"refTime":"2023-11-20T09:00:00:Z","depth":"4","parameterNumber":2,"parameterNumberName":"U-component_of_CURRENTS"},"data":[0,0,0,0,0,0,0,0,0,0,0,0,0,0,0,0,0,0,0,0,0,0,0,0,0,0,0,0,0,0,0,0,0,0,0,0,0,0,0,0,0,0,0,0,0,0,0,0,0,0,0,0,0,0,0,0,0,0,-0.1049,-0.105,0,-0.1137,-0.1138,-0.1139,-0.118,-0.118,-0.118,-0.118,-0.1232,-0.1233,-0.1234,0,0,0,0,0,0,0,0,0,0,0,0,0,-0.0947,-0.0948,-0.1049,-0.105,-0.1051,-0.1137,-0.1138,-0.114,-0.118,-0.118,-0.118,-0.118,-0.1231,-0.1233,-0.1234,0,0,0,0,0,0,0,0,0,0,0,0,0,-0.1008,-0.0949,-0.1049,-0.1082,-0.1086,-0.1137,-0.1138,-0.114,-0.118,-0.118,-0.118,-0.118,-0.1231,-0.1233,-0.1235,-0.1249,0,0,-0.1241,-0.1242,0,0,0,0,0,0,0,0,-0.1005,-0.1012,-0.1076,-0.108,-0.1084,-0.1148,-0.1121,-0.1175,-0.118,-0.1144,-0.118,-0.118,-0.12,-0.1205,-0.1222,-0.1252,-0.1254,-0.1241,-0.1243,-0.1244,-0.1244,0,0,0,0,0,0,0,-0.1001,-0.1009,-0.1084,-0.1077,-0.1082,-0.1103,-0.1112,-0.1132,-0.1171,-0.1147,-0.1151,-0.1161,-0.1202,-0.122,-0.1223,-0.1255,-0.1241,-0.1243,-0.1244,-0.1245,-0.1336,-0.1337,0,0,0,0,0,0,-0.0989,-0.1005,-0.1081,-0.1086,-0.1044,-0.1105,-0.1115,-0.1127,-0.1171,-0.1178,-0.1161,-0.1162,-0.1216,-0.1221,-0.1225,-0.1276,-0.1244,-0.1245,-0.1247,-0.1335,-0.1336,-0.1338,0,0,0,0,0,0,-0.0986,-0.0995,-0.1077,-0.1047,-0.1059,-0.1107,-0.1121,-0.1129,-0.1159,-0.1182,-0.1188,-0.1184,-0.1216,-0.1222,-0.1262,-0.1277,-0.1246,-0.1248,-0.1334,-0.1335,-0.1337,-0.1357,0,0,0,0,0,0,-0.0983,-0.0994,-0.1004,-0.1047,-0.1061,-0.1114,-0.1121,-0.1131,-0.1165,-0.1168,-0.1204,-0.1208,-0.1217,-0.1259,-0.1264,-0.1279,-0.125,-0.1332,-0.1334,-0.1336,-0.1355,-0.1359,-0.1362,0,0,0,0,0,-0.0979,-0.0993,-0.1004,-0.1014,-0.1072,-0.1114,-0.1124,-0.1157,-0.1166,-0.1183,-0.1213,-0.1207,-0.1276,-0.1262,-0.1268,-0.1283,-0.1331,-0.1334,-0.1336,-0.1353,-0.1358,-0.1362,0,0,0,0,0,0,-0.095,-0.1,-0.1013,-0.104,-0.1076,-0.1121,-0.1145,-0.1164,-0.1202,-0.1212,-0.1227,-0.1234,-0.1271,-0.1279,-0.1263,-0.1317,-0.1301,-0.1305,-0.1311,-0.1316,-0.132,-0.1316,-0.1252,0,0,0,0,0,-0.0949,-0.0979,-0.102,-0.1044,-0.1064,-0.1106,-0.113,-0.1155,-0.1192,-0.121,-0.1231,-0.1259,-0.1285,-0.1302,-0.1324,-0.1357,-0.1354,-0.137,-0.1374,-0.1378,-0.1379,-0.1393,-0.1398,-0.1346,-0.1346,-0.1346,0,0,-0.0939,-0.0977,-0.0989,-0.1041,-0.1076,-0.1109,-0.1121,-0.1166,-0.12,-0.1208,-0.1259,-0.1274,-0.1298,-0.1335,-0.1352,-0.1344,-0.139,-0.1381,-0.1383,-0.1383,-0.1397,-0.1401,-0.1406,-0.1348,-0.1347,-0.1347,0,0,-0.0943,-0.0975,-0.1001,-0.1035,-0.1093,-0.1123,-0.1137,-0.1188,-0.1219,-0.1266,-0.128,-0.1305,-0.1348,-0.1366,-0.138,-0.142,-0.1409,-0.1428,-0.1446,-0.1461,-0.1465,-0.1468,-0.1462,-0.1465,-0.1431,-0.1431,-0.1431,0,-0.0936,-0.0972,-0.1013,-0.105,-0.1082,-0.1129,-0.1161,-0.1202,-0.1259,-0.1284,-0.1286,-0.1348,-0.1362,-0.1405,-0.1419,-0.1427,-0.1429,-0.1424,-0.1464,-0.1468,-0.1471,-0.1464,-0.1467,-0.1432,-0.1432,-0.1432,-0.1432,0,-0.0953,-0.0989,-0.1011,-0.1074,-0.1111,-0.1151,-0.1208,-0.125,-0.1287,-0.1318,-0.137,-0.1392,-0.1424,-0.1432,-0.144,-0.1474,-0.1465,-0.1465,-0.1448,-0.1477,-0.1468,-0.1471,-0.1434,-0.1434,-0.1433,-0.1433,0,0,-0.0917,-0.1007,-0.1013,-0.1053,-0.113,-0.1166,-0.1228,-0.1293,-0.1337,-0.1377,-0.1421,-0.1459,-0.1464,-0.148,-0.1489,-0.1501,-0.1519,-0.1496,-0.1496,-0.1481,-0.154,-0.144,-0.1433,-0.1529,-0.153,-0.153,-0.1521,0,-0.0921,-0.0987,-0.1033,-0.1099,-0.1137,-0.1204,-0.1259,-0.1323,-0.1375,-0.1427,-0.1454,-0.1495,-0.1487,-0.1504,-0.1516,-0.1526,-0.1529,-0.1521,-0.1521,-0.1521,-0.1422,-0.1434,-0.1533,-0.1523,-0.1524,-0.1524,-0.1525,0,-0.0912,-0.0966,-0.1024,-0.1128,-0.1151,-0.1198,-0.1297,-0.1353,-0.1432,-0.147,-0.1507,-0.153,-0.1561,-0.1546,-0.1567,-0.1565,-0.1553,-0.1549,-0.1549,-0.145,-0.1425,-0.1491,-0.1529,-0.1529,-0.1528,-0.1528,-0.1528,0,-0.0861,-0.096,-0.1012,-0.1043,-0.1157,-0.1205,-0.127,-0.1359,-0.1411,-0.1492,-0.1521,-0.1567,-0.1586,-0.1593,-0.1584,-0.1584,-0.1592,-0.159,-0.1484,-0.1476,-0.1561,-0.1557,-0.1593,-0.1593,-0.1593,-0.1593,-0.1593,0,-0.0841,-0.0884,-0.0998,-0.1024,-0.1101,-0.1186,-0.1266,-0.1337,-0.1423,-0.1464,-0.1533,-0.1551,-0.16,-0.1609,-0.1598,-0.154,-0.1601,-0.1482,-0.1468,-0.1568,-0.1566,-0.1562,-0.1558,-0.1592,-0.1592,-0.1592,-0.1592,0,-0.0769,-0.0845,-0.0912,-0.1033,-0.1076,-0.1128,-0.1258,-0.1307,-0.1398,-0.1449,-0.1472,-0.1548,-0.155,-0.1575,-0.1582,-0.1539,-0.151,-0.1471,-0.1568,-0.156,-0.1382,-0.138,-0.1354,-0.135,-0.1347,-0.1345,-0.1343,0,-0.0738,-0.0759,-0.0889,-0.0937,-0.0997,-0.109,-0.1149,-0.1272,-0.1314,-0.142,-0.1424,-0.1469,-0.1497,-0.1421,-0.1466,-0.1438,-0.1419,-0.1405,-0.1397,-0.1368,-0.1358,-0.1361,-0.1363,-0.1338,-0.1337,-0.1336,-0.1335,0,-0.0659,-0.0706,-0.0766,-0.0863,-0.094,-0.1018,-0.1107,-0.113,-0.1248,-0.1337,-0.1332,-0.1337,-0.1335,-0.1338,-0.1327,-0.1307,-0.1422,-0.1372,-0.1379,-0.1372,-0.1348,-0.1342,-0.1347,-0.1325,-0.1326,-0.1327,-0.1328,0,-0.0596,-0.0617,-0.0698,-0.0786,-0.0874,-0.0923,-0.0988,-0.1037,-0.1094,-0.1208,-0.1193,-0.124,-0.1302,-0.1268,-0.1256,-0.1234,-0.1216,-0.1189,-0.1205,-0.1217,-0.1179,-0.1129,-0.102,0,0,0,0,0,-0.0529,-0.0551,-0.0618,-0.0718,-0.0799,-0.0848,-0.0951,-0.1014,-0.1118,-0.1075,-0.1134,-0.1121,-0.1111,-0.1143,-0.1089,-0.1204,-0.1228,-0.1139,-0.1207,-0.1266,-0.1278,-0.1247,0,0,0,0,0,0,-0.0493,-0.0533,-0.0583,-0.0634,-0.068,-0.0757,-0.0814,-0.0889,-0.0879,-0.0977,-0.0969,-0.1045,-0.1045,-0.1104,-0.1057,-0.1068,-0.1089,-0.1177,-0.1174,-0.1259,-0.127,-0.128,-0.1253,0,0,0,0,0]},{"header":{"parameterUnit":"m.s-1","parameterCategory":2,"la1":30.2991,"la2":30.254,"lo1":-89.0895,"lo2":-89.0444,"dy":0.0017,"dx":0.0017,"nx":28,"ny":28,"refTime":"2023-11-20T09:00:00:Z","depth":"4","parameterNumber":3,"parameterNumberName":"V-component_of_CURRENTS"},"data":[0,0,0,0,0,0,0,0,0,0,0,0,0,0,0,0,0,0,0,0,0,0,0,0,0,0,0,0,0,0,0,0,0,0,0,0,0,0,0,0,0,0,0,0,0,0,0,0,0,0,0,0,0,0,0,0,0,0,-0.0164,-0.0164,0,-0.0163,-0.0163,-0.0163,-0.0139,-0.0139,-0.0138,-0.0138,-0.0127,-0.0127,-0.0127,0,0,0,0,0,0,0,0,0,0,0,0,0,-0.0124,-0.0125,-0.0164,-0.0164,-0.0164,-0.0163,-0.0163,-0.0163,-0.0139,-0.0139,-0.0138,-0.0138,-0.0127,-0.0127,-0.0127,0,0,0,0,0,0,0,0,0,0,0,0,0,-0.0132,-0.0125,-0.0164,-0.0154,-0.0153,-0.0163,-0.0163,-0.0163,-0.0139,-0.0139,-0.0138,-0.0138,-0.0127,-0.0127,-0.0127,-0.0141,0,0,-0.0128,-0.0128,0,0,0,0,0,0,0,0,-0.0132,-0.0133,-0.0155,-0.0154,-0.0154,-0.0152,-0.0145,-0.0155,-0.014,-0.0143,-0.0138,-0.0137,-0.0136,-0.0136,-0.0134,-0.014,-0.014,-0.0128,-0.0128,-0.0128,-0.0128,0,0,0,0,0,0,0,-0.0131,-0.0133,-0.0161,-0.0155,-0.0154,-0.0142,-0.0143,-0.0146,-0.0141,-0.0142,-0.0141,-0.0144,-0.0135,-0.0134,-0.0134,-0.014,-0.0128,-0.0128,-0.0128,-0.0128,-0.0153,-0.0154,0,0,0,0,0,0,-0.0137,-0.0133,-0.0162,-0.0162,-0.0143,-0.0144,-0.0144,-0.0152,-0.0141,-0.014,-0.0145,-0.0143,-0.0134,-0.0134,-0.0133,-0.0139,-0.0128,-0.0128,-0.0128,-0.0152,-0.0153,-0.0154,0,0,0,0,0,0,-0.0136,-0.014,-0.0162,-0.0148,-0.015,-0.0145,-0.0154,-0.0152,-0.0152,-0.0144,-0.0141,-0.0146,-0.0134,-0.0133,-0.0139,-0.0138,-0.0128,-0.0128,-0.0152,-0.0153,-0.0153,-0.0156,0,0,0,0,0,0,-0.0135,-0.014,-0.0149,-0.0149,-0.0152,-0.0175,-0.0155,-0.0153,-0.0155,-0.0153,-0.0145,-0.0143,-0.0133,-0.0139,-0.0139,-0.0139,-0.0128,-0.0151,-0.0152,-0.0153,-0.0156,-0.0157,-0.0159,0,0,0,0,0,-0.0134,-0.0152,-0.015,-0.0153,-0.0164,-0.0176,-0.0177,-0.0169,-0.0156,-0.0164,-0.0153,-0.0143,-0.0146,-0.014,-0.014,-0.0139,-0.0151,-0.0152,-0.0153,-0.0155,-0.0157,-0.0159,0,0,0,0,0,0,-0.0141,-0.0151,-0.0149,-0.0169,-0.0176,-0.0173,-0.0179,-0.0173,-0.0171,-0.0165,-0.0152,-0.0151,-0.0158,-0.0153,-0.0146,-0.0151,-0.0146,-0.0147,-0.0147,-0.0149,-0.0151,-0.0138,-0.0128,0,0,0,0,0,-0.0148,-0.0161,-0.0169,-0.0184,-0.0188,-0.0184,-0.0187,-0.0183,-0.0181,-0.0178,-0.0173,-0.0167,-0.0164,-0.016,-0.0163,-0.0166,-0.0118,-0.0166,-0.0168,-0.0169,-0.016,-0.0067,-0.0058,-0.0158,-0.0158,-0.0158,0,0,-0.0157,-0.0162,-0.0171,-0.0187,-0.0187,-0.0199,-0.0184,-0.0192,-0.0195,-0.0179,-0.0182,-0.0178,-0.0169,-0.0171,-0.0173,-0.0164,-0.0121,-0.0171,-0.0171,-0.0161,-0.0067,-0.0057,-0.0047,-0.0159,-0.0159,-0.0159,0,0,-0.0179,-0.0184,-0.0203,-0.021,-0.0217,-0.0212,-0.0217,-0.0219,-0.0212,-0.0222,-0.0205,-0.0193,-0.0205,-0.0182,-0.0175,-0.0188,-0.0138,-0.0199,-0.0186,-0.0096,-0.0086,-0.0076,-0.0018,-0.0003,-0.0191,-0.0191,-0.0191,0,-0.0186,-0.0213,-0.021,-0.0228,-0.0235,-0.022,-0.0239,-0.0231,-0.0234,-0.0222,-0.0228,-0.0204,-0.0204,-0.0171,-0.0181,-0.0187,-0.0137,-0.0177,-0.0094,-0.0083,-0.0073,-0.0016,0.0001,-0.0192,-0.0191,-0.0191,-0.0191,0,-0.0222,-0.0244,-0.0254,-0.0268,-0.0274,-0.0288,-0.0279,-0.0275,-0.0266,-0.0251,-0.0228,-0.0214,-0.0191,-0.0194,-0.0196,-0.0133,-0.0121,-0.0109,-0.0081,-0.0063,-0.0005,0.0013,-0.0192,-0.0192,-0.0192,-0.0192,0,0,-0.0235,-0.0273,-0.0276,-0.0291,-0.0296,-0.0304,-0.0299,-0.0287,-0.0269,-0.0256,-0.0221,-0.0214,-0.0186,-0.0176,-0.0159,-0.009,0.0006,-0.0074,-0.0069,-0.0002,0.0195,0.0117,0.0129,0.0046,0.0049,0.0052,0.0203,0,-0.0262,-0.0307,-0.0314,-0.0345,-0.0366,-0.0347,-0.0344,-0.0324,-0.0298,-0.026,-0.0206,-0.018,-0.0182,-0.0166,-0.0093,-0.0022,0.0054,-0.0037,0.0155,0.016,0.0102,0.0147,0.0062,0.0216,0.022,0.0223,0.0225,0,-0.0295,-0.0319,-0.0363,-0.0383,-0.0388,-0.0399,-0.0372,-0.0368,-0.0301,-0.0276,-0.0212,-0.017,-0.0082,-0.0083,0.0089,0.0034,0.0113,0.0175,0.0183,0.0127,0.0115,0.0197,0.0257,0.0255,0.0252,0.025,0.0248,0,-0.0309,-0.0351,-0.0386,-0.0396,-0.0414,-0.0417,-0.0414,-0.037,-0.0355,-0.0271,-0.024,-0.0125,-0.0066,0.0063,0.016,0.0147,0.0352,0.0357,0.0367,0.0362,0.039,0.0379,0.0502,0.0502,0.0501,0.0501,0.05,0,-0.0336,-0.0363,-0.0397,-0.0418,-0.0442,-0.044,-0.0442,-0.0416,-0.0364,-0.0327,-0.0246,-0.0179,-0.0022,0.0098,0.0195,0.0322,0.0391,0.0383,0.0407,0.0379,0.0365,0.0402,0.0389,0.0506,0.0505,0.0504,0.0503,0,-0.0348,-0.0377,-0.0417,-0.0446,-0.0458,-0.047,-0.0479,-0.0469,-0.0418,-0.0359,-0.033,-0.019,-0.004,0.0092,0.0303,0.0353,0.0487,0.0514,0.0458,0.0473,0.0433,0.0417,0.0568,0.0567,0.0566,0.0565,0.0564,0,-0.0358,-0.0386,-0.0438,-0.0466,-0.0484,-0.0507,-0.0522,-0.0497,-0.048,-0.0362,-0.0328,-0.0176,-0.008,0.0171,0.0295,0.0477,0.0483,0.0552,0.0507,0.0437,0.0446,0.0431,0.0417,0.0563,0.0562,0.0562,0.0562,0,-0.0372,-0.0395,-0.0425,-0.0486,-0.052,-0.0552,-0.0566,-0.0557,-0.0502,-0.0455,-0.0295,-0.0159,-0.0001,0.0174,0.0292,0.0423,0.0509,0.0541,0.0544,0.0503,0.0432,0.0438,0.0426,0.0558,0.0559,0.0559,0.0559,0,-0.037,-0.0396,-0.0447,-0.0493,-0.0543,-0.0577,-0.0587,-0.0547,-0.0517,-0.0388,-0.0324,-0.0139,-0.0014,0.0147,0.0269,0.0365,0.0391,0.0425,0.0435,0.044,0.0329,0.0215,0.0314,0,0,0,0,0,-0.0359,-0.0398,-0.0453,-0.0508,-0.0559,-0.0588,-0.0606,-0.0603,-0.0547,-0.0436,-0.0378,-0.0224,-0.0014,0.0092,0.0179,0.0209,0.0369,0.0309,0.0404,0.0538,0.0542,0.0422,0,0,0,0,0,0,-0.0356,-0.0408,-0.0448,-0.0511,-0.0551,-0.0602,-0.0615,-0.0583,-0.0519,-0.0434,-0.0316,-0.0218,-0.0023,-0.0058,0.0182,0.0212,0.0279,0.0416,0.0417,0.0535,0.0539,0.0543,0.0421,0,0,0,0,0]}]]